DMSP 5D-2 F13 DEB, 40673

Orbit data source: Space-Track

DMSP 5D-2 F13 DEB, 40673 is space debris in SSO originally from a launch on Fri, 24 Mar 1995 UTC launched from the Air Force Western Test Range (AFWTR). Debris objects in space refer to the collection of defunct objects orbiting the Earth. Examples of debris include non-operational satellites, rocket bodies, and fragments generated from explosions, collisions, or faulty payload assembly.

Loading next visibility...
Identifier
40673, 1995-015FM
Orbit
SSO
Country
Flag of USUS
Related business
Manufacturer
Unknown
Mission
Spacecraft
Bus & Motor
Unknown
Mass
Unknown
Launch date (UTC)
1995-03-24 (31 years ago)
Launch vehicle
Unknown
Launch site
Air Force Western Test Range (AFWTR)
Object type
Payload
Rocket body
Debris
Shape & HBR
Unknown shape, 0.1 m
Radar Cross Section
Small (<0.1 m²)

Expand to show TLE details & history
Last TLE update: 4 days ago

TLE from 4 days ago
0 DMSP 5D-2 F13 DEB
1 40673U 95015FM  26174.78341814  .00000263  00000-0  13663-3 0  9999
2 40673  98.6943 190.8549 0023422  11.9563 348.2166 14.22680943581671
Epoch: 2026-06-23T18:48Z
TLE epoch observation values (Epoch: 2026-06-23T18:48:07.327Z)
Latitude
-0.00004°
Longitude
-3.12565°
Altitude
802.722 km
Speed
7.461 km/s
True Right ascension
12h 43m 25s
True Declination
0° 00' 00"
Sunlit
Object was in daylight at epoch
Visualization orbit readout
Latitude
Unknown
Longitude
Unknown
Altitude
Unknown
Speed
Unknown
Apparent Right ascension
Unknown
Apparent Declination
Unknown
Sunlit
N/A
Visualization observer readout
Local Sidereal Time
23:26:46
Azimuth
Unknown
Elevation
Unknown
Doppler factor
Unknown
Orbital elements
Apogee altitude
830.299 km
Perigee altitude
796.61 km
Semi-major axis
7,191.592 km
Eccentricity
0.00234
Inclination
98.6943°
RAAN
190.8549°
Arg. of periapsis
11.9563°
True anomaly
348.16163°
Mean anomaly
348.2166°
Eccentric anomaly
348.18913°
Mean motion
3.55882 °/min
Orbital period
101.16 mins
BSTAR
0.00013663
Loading maneuver chart data...
Computing Atmospheric mass density...

Documentation

Showing up to 5 results
|